TimeEET,TemperatureF,Dew PointF,Humidity,Sea Level PressureIn,VisibilityMPH,Wind Direction,Wind SpeedMPH,Gust SpeedMPH,PrecipitationIn,Events,Conditions,WindDirDegrees,DateUTC
12:20 AM,62.6,57.2,82,30.04,-9999.0,Variable,3.5,-,N/A,,Clear,0,2012-11-14 22:20:00
12:50 AM,62.6,57.2,82,30.04,-9999.0,Variable,3.5,-,N/A,,Clear,0,2012-11-14 22:50:00
1:20 AM,62.6,57.2,82,30.04,-9999.0,Variable,3.5,-,N/A,,Clear,0,2012-11-14 23:20:00
1:50 AM,60.8,57.2,88,30.04,-9999.0,Variable,3.5,-,N/A,,Clear,0,2012-11-14 23:50:00
2:00 AM,62,57,79,30.04,6,,3.5,,,,,,2012-11-15 00:00:00
2:20 AM,60.8,57.2,88,30.04,-9999.0,Variable,3.5,-,N/A,,Clear,0,2012-11-15 00:20:00
2:50 AM,60.8,57.2,88,30.04,-9999.0,Variable,2.3,-,N/A,,Clear,0,2012-11-15 00:50:00
3:20 AM,60.8,57.2,88,30.04,-9999.0,Variable,2.3,-,N/A,,Clear,0,2012-11-15 01:20:00
3:50 AM,60.8,57.2,88,30.04,-9999.0,Variable,3.5,-,N/A,,Clear,0,2012-11-15 01:50:00
4:20 AM,60.8,57.2,88,30.04,-9999.0,Variable,3.5,-,N/A,,Clear,0,2012-11-15 02:20:00
4:50 AM,60.8,57.2,88,30.04,6.2,Variable,2.3,-,N/A,,Partly Cloudy,0,2012-11-15 02:50:00
5:20 AM,60.8,57.2,88,30.04,6.2,Variable,2.3,-,N/A,,Partly Cloudy,0,2012-11-15 03:20:00
5:50 AM,60.8,57.2,88,30.04,6.2,Variable,2.3,-,N/A,,Partly Cloudy,0,2012-11-15 03:50:00
6:20 AM,60.8,57.2,88,30.04,6.2,Variable,2.3,-,N/A,,Partly Cloudy,0,2012-11-15 04:20:00
6:50 AM,60.8,57.2,88,30.04,6.2,Variable,3.5,-,N/A,,Partly Cloudy,0,2012-11-15 04:50:00
7:20 AM,60.8,57.2,88,30.04,6.2,Variable,3.5,-,N/A,,Partly Cloudy,0,2012-11-15 05:20:00
7:50 AM,60.8,57.2,88,30.06,6.2,Variable,3.5,-,N/A,,Scattered Clouds,0,2012-11-15 05:50:00
8:00 AM,61,57,84,30.06,6,,3.5,,,,Partly Cloudy,,2012-11-15 06:00:00
8:20 AM,60.8,57.2,88,30.06,6.2,Variable,3.5,-,N/A,,Scattered Clouds,0,2012-11-15 06:20:00
8:50 AM,64.4,55.4,73,30.06,6.2,Variable,1.2,-,N/A,,Scattered Clouds,0,2012-11-15 06:50:00
9:20 AM,64.4,55.4,73,30.06,6.2,Calm,Calm,-,N/A,,Scattered Clouds,0,2012-11-15 07:20:00
9:50 AM,68.0,53.6,60,30.06,6.2,Variable,2.3,-,N/A,,Scattered Clouds,0,2012-11-15 07:50:00
10:20 AM,68.0,53.6,60,30.06,6.2,Variable,2.3,-,N/A,,Mostly Cloudy,0,2012-11-15 08:20:00
10:50 AM,71.6,59.0,64,30.06,6.2,NE,4.6,-,N/A,,Mostly Cloudy,40,2012-11-15 08:50:00
11:20 AM,71.6,59.0,64,30.06,6.2,Variable,2.3,-,N/A,,Mostly Cloudy,0,2012-11-15 09:20:00
11:50 AM,71.6,59.0,64,30.06,6.2,ESE,5.8,-,N/A,,Scattered Clouds,110,2012-11-15 09:50:00
12:20 PM,71.6,59.0,64,30.06,6.2,Variable,3.5,-,N/A,,Scattered Clouds,0,2012-11-15 10:20:00
12:50 PM,73.4,59.0,61,30.04,6.2,East,6.9,-,N/A,,Scattered Clouds,100,2012-11-15 10:50:00
1:20 PM,73.4,59.0,61,30.04,6.2,Variable,3.5,-,N/A,,Scattered Clouds,0,2012-11-15 11:20:00
1:50 PM,69.8,66.2,88,30.04,6.2,West,6.9,-,N/A,,Scattered Clouds,280,2012-11-15 11:50:00
2:00 PM,71,67,82,30.05,6,West,6.9,,,,Mostly Cloudy,280,2012-11-15 12:00:00
2:20 PM,69.8,66.2,88,30.04,6.2,West,6.9,-,N/A,,Scattered Clouds,280,2012-11-15 12:20:00
2:50 PM,69.8,66.2,88,30.04,6.2,WSW,6.9,-,N/A,,Scattered Clouds,240,2012-11-15 12:50:00
3:20 PM,69.8,66.2,88,30.04,6.2,WSW,6.9,-,N/A,,Scattered Clouds,240,2012-11-15 13:20:00
3:50 PM,68.0,64.4,88,30.04,6.2,WSW,4.6,-,N/A,,Scattered Clouds,240,2012-11-15 13:50:00
4:20 PM,68.0,64.4,88,30.04,6.2,WSW,4.6,-,N/A,,Scattered Clouds,240,2012-11-15 14:20:00
4:50 PM,66.2,62.6,88,30.04,6.2,Calm,Calm,-,N/A,,Scattered Clouds,0,2012-11-15 14:50:00
5:20 PM,66.2,62.6,88,30.04,6.2,Calm,Calm,-,N/A,,Scattered Clouds,0,2012-11-15 15:20:00
5:50 PM,62.6,59.0,88,30.04,6.2,Calm,Calm,-,N/A,,Scattered Clouds,0,2012-11-15 15:50:00
6:20 PM,62.6,59.0,88,30.04,6.2,Calm,Calm,-,N/A,,Scattered Clouds,0,2012-11-15 16:20:00
6:50 PM,62.6,59.0,88,30.06,6.2,Calm,Calm,-,N/A,,Scattered Clouds,0,2012-11-15 16:50:00
7:20 PM,62.6,59.0,88,30.06,6.2,Calm,Calm,-,N/A,,Scattered Clouds,0,2012-11-15 17:20:00
7:50 PM,60.8,57.2,88,30.06,6.2,Calm,Calm,-,N/A,,Scattered Clouds,0,2012-11-15 17:50:00
8:00 PM,60,57,86,30.07,6,Calm,Calm,,,,Partly Cloudy,,2012-11-15 18:00:00
8:20 PM,60.8,57.2,88,30.06,6.2,Calm,Calm,-,N/A,,Scattered Clouds,0,2012-11-15 18:20:00
8:50 PM,60.8,57.2,88,30.06,6.2,Calm,Calm,-,N/A,,Scattered Clouds,0,2012-11-15 18:50:00
9:20 PM,60.8,57.2,88,30.06,6.2,Calm,Calm,-,N/A,,Scattered Clouds,0,2012-11-15 19:20:00
9:50 PM,60.8,57.2,88,30.06,6.2,Calm,Calm,-,N/A,,Scattered Clouds,0,2012-11-15 19:50:00
10:20 PM,60.8,57.2,88,30.06,6.2,Variable,2.3,-,N/A,,Scattered Clouds,0,2012-11-15 20:20:00
10:50 PM,59.0,55.4,88,30.06,6.2,Variable,1.2,-,N/A,,Scattered Clouds,0,2012-11-15 20:50:00
11:20 PM,59.0,55.4,88,30.06,6.2,Variable,3.5,-,N/A,,Scattered Clouds,0,2012-11-15 21:20:00
11:50 PM,59.0,55.4,88,30.06,6.2,Variable,3.5,-,N/A,,Scattered Clouds,0,2012-11-15 21:50:00